Home   Weather   Włocławek   Past weeks

Flag for Poland Past Weather in Włocławek, Poland — Yesterday and Last 2 Weeks

Now
44 °F

Quite cool.


Feels Like: 40 °F
Forecast: 38 / 44 °F
Wind: 7 mph from West

Location: Plock

Current Time: Feb 22, 2017 at 11:31:24 pm

Latest Report: Feb 22, 2017 at 10:00 pm


Visibility: 18 mi

Pressure: 29.35 "Hg

Humidity: 77%

Dew Point: 37 °F

Location of WłocławekLocation

Past Weather in Włocławek — Graph

°F

Włocławek Temperature Yesterday

Maximum temperature yesterday: 46 °F (at 5:00 am)
Minimum temperature yesterday: 38 °F (at 7:00 pm)
Average temperature yesterday: 43 °F

High & Low Weather Summary for the Past Weeks

 TemperatureHumidityPressure
High48 °F (Feb 22, 5:00 pm)100% (Feb 18, 10:00 am)30.76 "Hg (Feb 18, 10:00 am)
Low12 °F (Feb 11, 7:00 am)45% (Feb 10, 7:00 pm)29.32 "Hg (Feb 22, 4:00 pm)
Average28 °F81%30.31 "Hg
* Reported Feb 7 10:00 pm — Feb 22 10:00 pm, Włocławek, Weather by CustomWeather, © 2017

Note: Actual official high and low records may vary slightly from our data, if they occured in-between our weather recording intervals... More about our weather records

Advertising

Włocławek Weather History for the Previous 24 Hours

Scroll right to see more
 ConditionsComfort  
Time TempWeatherWind HumidityBarometerVisibility
10:00 pm
Wed, Feb 22
44 °FQuite cool.7 mph77%29.35 "Hg18 mi
9:00 pm45 °FQuite cool.5 mph82%29.35 "Hg25 mi
8:00 pm44 °FQuite cool.6 mph81%29.35 "Hg22 mi
7:00 pm46 °FCool.6 mph77%29.35 "Hg31 mi
6:00 pm46 °FCool.8 mph85%29.32 "Hg6 mi
5:00 pm48 °FCool.8 mph78%29.32 "Hg19 mi
4:00 pm47 °FRain showers. Cloudy.7 mph94%29.32 "Hg6 mi
3:00 pm46 °FCool.8 mph93%29.35 "Hg9 mi
2:00 pm44 °FLight rain. Cloudy.7 mph96%29.38 "Hg4 mi
1:00 pm42 °FLight rain. Cloudy.8 mph95%29.41 "Hg3 mi
12:00 pm40 °FLight rain. Cloudy.7 mph94%29.44 "Hg3 mi
11:00 am38 °FRain. Cloudy.7 mph91%29.47 "Hg3 mi
10:00 am37 °FFog.5 mph90%29.56 "Hg6 mi
9:00 am36 °FLight rain. Cloudy.5 mph91%29.60 "Hg4 mi
8:00 am35 °FChilly.5 mph90%29.65 "Hg7 mi
7:00 am34 °FChilly.3 mph90%29.69 "Hg7 mi
6:00 am35 °FChilly.3 mph88%29.71 "Hg9 mi
5:00 am35 °FChilly.5 mph87%29.73 "Hg9 mi
4:00 am36 °FChilly.5 mph84%29.75 "Hg8 mi
3:00 am38 °FChilly.8 mph79%29.75 "Hg12 mi
2:00 am39 °FChilly.7 mph78%29.75 "Hg11 mi
1:00 am39 °FChilly.7 mph77%29.74 "Hg11 mi
12:00 am40 °FChilly.8 mph75%29.72 "Hg11 mi
11:00 pm
Tue, Feb 21
40 °FQuite cool.9 mph74%29.70 "Hg12 mi
Weather by CustomWeather, © 2017

See weather overviewHow to use our weather pages